User: anonymous   Login
Location: Plainartige
(45.6866°N, 1.7993°E)
Time: 10:53:07
(UTC+00:00)
Language:

deb r/b Ablestar - Orbit

View from above orbital plane
View from above orbital plane
View from above satellite
View from above satellite

Ground track
Ground track

The orbit data is extracted from the following two-line orbital elements,

1   552U 61015GM  21269.82786840  .00000634  00000-0  52357-3 0  9996
2   552  67.7396 172.7916 0102687  92.6167 268.6680 13.92369673 16507
Epoch (UTC): 26 September 2021 19:52:07
Eccentricity: 0.0102687
inclination: 67.7396°
perigee height: 845 km
apogee height: 995 km
right ascension of ascending node: 172.7916°
argument of perigee: 92.6167°
revolutions per day: 13.92369673
mean anomaly at epoch: 268.6680°
orbit number at epoch: 1650

The dashed part of the orbit path shows where the satellite is in the earth's shadow,  

DLR